Corpus Christi, TX

2:03 PM CST on February 19, 2017 (GMT -0600)
North Padre Island

Weather History for KOPM - March, 2013

Change the Weather History Date:

Sunday, March 3, 2013

  Actual Average (KHRL) Record (KHRL)
Temperature  
Mean Temperature 62 °F -  
Max Temperature 66 °F 74 °F 95 °F (1991)
Min Temperature 59 °F 54 °F 29 °F (1888)
Degree Days  
Heating Degree Days 2    
Growing Degree Days 12 (Base 50)    
Moisture  
Dew Point 46 °F    
Average Humidity 54    
Maximum Humidity 77    
Minimum Humidity 39    
Precipitation  
Precipitation 0.00 in - - ()
Sea Level Pressure  
Sea Level Pressure 30.20 in    
Wind  
Wind Speed 12 mph (SE)    
Max Wind Speed 30 mph    
Max Gust Speed 29 mph    
Visibility 10 miles    
Events      
Averages and records for this station are not official NWS values.
T = Trace of Precipitation, MM = Missing Value Source: NWS Daily Summary

Daily Weather History Graph

Daily Weather History Graph

Search for Another Location

Airport or City:

Trip Planner

Search our weather history database for the weather conditions in past years. The results will help you decide how hot, cold, wet, or windy it might be!

Date:

Astronomy

Mar. 03, 2013 Rise Set
Actual Time 6:49 AM CST 6:30 PM CST
Civil Twilight 6:26 AM CST 6:53 PM CST
Nautical Twilight 5:59 AM CST 7:20 PM CST
Astronomical Twilight 5:32 AM CST 7:47 PM CST
Moon No Moon Rise 10:41 AM CST (3/3)
Length of Visible Light 12h 27m
Length of Day
11h 40m
Waning Gibbous, 63% of the Moon is Illuminated
Mar 3
Waning Gibbous
Mar 4
Last Quarter
Mar 11
New
Mar 19
First Quarter
Mar 27
Full

Hourly Weather History & Observations

Time (CST) Temp. Dew Point Humidity Pressure Visibility Wind Dir Wind Speed Gust Speed Precip Events Conditions
12:15 AM 62.6 °F 37.4 °F 39% 30.29 in 10.0 mi NE 10.4 mph - N/A   Clear
12:35 AM 62.6 °F 37.4 °F 39% 30.29 in 10.0 mi NE 10.4 mph - N/A   Clear
12:55 AM 62.6 °F 37.4 °F 39% 30.29 in 10.0 mi NE 8.1 mph - N/A   Clear
1:15 AM 62.6 °F 37.4 °F 39% 30.28 in 10.0 mi NE 11.5 mph - N/A   Clear
1:35 AM 62.6 °F 37.4 °F 39% 30.28 in 10.0 mi NE 9.2 mph - N/A   Clear
1:55 AM 62.6 °F 37.4 °F 39% 30.28 in 10.0 mi NE 9.2 mph - N/A   Clear
2:15 AM 62.6 °F 39.2 °F 42% 30.27 in 10.0 mi ENE 8.1 mph - N/A   Clear
2:35 AM 62.6 °F 39.2 °F 42% 30.27 in 10.0 mi ENE 8.1 mph 13.8 mph N/A   Clear
2:55 AM 62.6 °F 39.2 °F 42% 30.26 in 10.0 mi NE 9.2 mph - N/A   Clear
3:15 AM 62.6 °F 39.2 °F 42% 30.26 in 10.0 mi ENE 6.9 mph - N/A   Clear
3:35 AM 62.6 °F 39.2 °F 42% 30.26 in 10.0 mi NE 8.1 mph - N/A   Clear
3:55 AM 62.6 °F 39.2 °F 42% 30.25 in 10.0 mi ENE 4.6 mph - N/A   Clear
4:15 AM 62.6 °F 41.0 °F 45% 30.25 in 10.0 mi East 6.9 mph - N/A   Clear
4:35 AM 62.6 °F 39.2 °F 42% 30.25 in 10.0 mi Variable 4.6 mph - N/A   Clear
4:55 AM 62.6 °F 41.0 °F 45% 30.25 in 10.0 mi ENE 4.6 mph - N/A   Clear
5:15 AM 62.6 °F 41.0 °F 45% 30.25 in 10.0 mi ESE 4.6 mph - N/A   Clear
5:35 AM 62.6 °F 41.0 °F 45% 30.25 in 10.0 mi Calm Calm - N/A   Clear
5:55 AM 62.6 °F 39.2 °F 42% 30.26 in 10.0 mi SE 4.6 mph - N/A   Clear
6:15 AM 62.6 °F 41.0 °F 45% 30.25 in 10.0 mi SE 5.8 mph - N/A   Clear
6:35 AM 62.6 °F 41.0 °F 45% 30.26 in 10.0 mi SE 4.6 mph - N/A   Clear
6:55 AM 62.6 °F 41.0 °F 45% 30.26 in 10.0 mi SSE 5.8 mph - N/A   Clear
7:15 AM 62.6 °F 41.0 °F 45% 30.27 in 10.0 mi SSE 5.8 mph - N/A   Clear
7:35 AM 60.8 °F 51.8 °F 72% 30.27 in 10.0 mi SSW 6.9 mph - N/A   Clear
7:55 AM 60.8 °F 51.8 °F 72% 30.28 in 10.0 mi SW 10.4 mph - N/A   Clear
8:15 AM 59.0 °F 51.8 °F 77% 30.28 in 10.0 mi SW 11.5 mph - N/A   Clear
8:35 AM 59.0 °F 50.0 °F 72% 30.29 in 10.0 mi SW 10.4 mph - N/A   Clear
8:55 AM 59.0 °F 50.0 °F 72% 30.29 in 10.0 mi SW 9.2 mph - N/A   Clear
9:15 AM 59.0 °F 51.8 °F 77% 30.29 in 10.0 mi SW 10.4 mph - N/A   Clear
9:35 AM 60.8 °F 50.0 °F 68% 30.29 in 10.0 mi SSW 9.2 mph - N/A   Clear
9:55 AM 60.8 °F 50.0 °F 68% 30.29 in 10.0 mi SSW 10.4 mph - N/A   Clear
10:15 AM 60.8 °F 50.0 °F 68% 30.28 in 10.0 mi South 9.2 mph - N/A   Clear
10:35 AM 62.6 °F 50.0 °F 63% 30.28 in 10.0 mi South 10.4 mph - N/A   Clear
10:55 AM 62.6 °F 51.8 °F 68% 30.27 in 10.0 mi South 9.2 mph - N/A   Clear
11:15 AM 64.4 °F 42.8 °F 45% 30.26 in 10.0 mi SSE 12.7 mph - N/A   Clear
11:35 AM 64.4 °F 42.8 °F 45% 30.25 in 10.0 mi SSE 12.7 mph - N/A   Clear
11:55 AM 64.4 °F 44.6 °F 49% 30.24 in 10.0 mi SSE 15.0 mph - N/A   Clear
12:15 PM 64.4 °F 42.8 °F 45% 30.23 in 10.0 mi SSE 15.0 mph - N/A   Clear
12:35 PM 64.4 °F 44.6 °F 49% 30.22 in 10.0 mi SSE 16.1 mph - N/A   Clear
12:55 PM 64.4 °F 44.6 °F 49% 30.21 in 10.0 mi SSE 15.0 mph - N/A   Clear
1:15 PM 64.4 °F 44.6 °F 49% 30.20 in 10.0 mi SSE 15.0 mph - N/A   Clear
1:35 PM 64.4 °F 46.4 °F 52% 30.19 in 10.0 mi SSE 15.0 mph - N/A   Clear
1:55 PM 64.4 °F 46.4 °F 52% 30.18 in 10.0 mi SSE 16.1 mph - N/A   Clear
2:15 PM 64.4 °F 46.4 °F 52% 30.17 in 10.0 mi SSE 17.3 mph - N/A   Clear
2:35 PM 64.4 °F 46.4 °F 52% 30.16 in 10.0 mi SSE 17.3 mph - N/A   Clear
2:55 PM 64.4 °F 48.2 °F 56% 30.15 in 10.0 mi SSE 18.4 mph - N/A   Clear
3:35 PM 66.2 °F 48.2 °F 52% 30.14 in 10.0 mi SSE 18.4 mph - N/A   Clear
3:55 PM 66.2 °F 48.2 °F 52% 30.13 in 10.0 mi SSE 18.4 mph - N/A   Clear
4:15 PM 66.2 °F 50.0 °F 56% 30.12 in 10.0 mi SSE 19.6 mph - N/A   Clear
4:35 PM 66.2 °F 48.2 °F 52% 30.12 in 10.0 mi SSE 20.7 mph - N/A   Clear
4:55 PM 66.2 °F 50.0 °F 56% 30.12 in 10.0 mi SSE 18.4 mph - N/A   Clear
5:15 PM 66.2 °F 50.0 °F 56% 30.11 in 10.0 mi SE 19.6 mph - N/A   Clear
5:35 PM 66.2 °F 50.0 °F 56% 30.11 in 10.0 mi SSE 19.6 mph - N/A   Clear
5:55 PM 66.2 °F 48.2 °F 52% 30.11 in 10.0 mi SSE 20.7 mph - N/A   Clear
6:15 PM 66.2 °F 50.0 °F 56% 30.11 in 10.0 mi SSE 21.9 mph - N/A   Clear
6:35 PM 66.2 °F 50.0 °F 56% 30.11 in 10.0 mi SSE 21.9 mph - N/A   Clear
6:55 PM 66.2 °F 51.8 °F 60% 30.10 in 10.0 mi SSE 20.7 mph - N/A   Clear
7:15 PM 66.2 °F 50.0 °F 56% 30.10 in 10.0 mi SSE 24.2 mph - N/A   Clear
7:35 PM 66.2 °F 51.8 °F 60% 30.10 in 10.0 mi SSE 23.0 mph - N/A   Clear
7:55 PM 66.2 °F 50.0 °F 56% 30.10 in 10.0 mi SE 25.3 mph - N/A   Clear
8:15 PM 66.2 °F 51.8 °F 60% 30.10 in 10.0 mi SSE 25.3 mph - N/A   Clear
8:35 PM 66.2 °F 51.8 °F 60% 30.10 in 10.0 mi SSE 25.3 mph - N/A   Clear
8:55 PM 66.2 °F 51.8 °F 60% 30.10 in 10.0 mi SSE 21.9 mph 28.8 mph N/A   Clear
9:15 PM 66.2 °F 53.6 °F 64% 30.09 in 10.0 mi SSE 23.0 mph - N/A   Clear
9:35 PM 66.2 °F 51.8 °F 60% 30.10 in 10.0 mi SSE 24.2 mph - N/A   Clear
9:55 PM 66.2 °F 53.6 °F 64% 30.09 in 10.0 mi SSE 26.5 mph - N/A   Clear
10:15 PM 66.2 °F 51.8 °F 60% 30.09 in 10.0 mi SSE 26.5 mph - N/A   Clear
10:35 PM 66.2 °F 51.8 °F 60% 30.08 in 10.0 mi SSE 26.5 mph - N/A   Clear
10:55 PM 66.2 °F 51.8 °F 60% 30.08 in 10.0 mi SSE 28.8 mph - N/A   Clear
11:15 PM 66.2 °F 53.6 °F 64% 30.07 in 10.0 mi SSE 27.6 mph - N/A   Clear
11:35 PM 66.2 °F 53.6 °F 64% 30.05 in 10.0 mi SSE 26.5 mph - N/A   Clear
11:55 PM 66.2 °F 53.6 °F 64% 30.05 in 10.0 mi SSE 29.9 mph - N/A   Clear